Location: Perryvale
(54.4667°N, 113.3833°W)
Time: 19:25:06
(UTC+00:00)

Transit 2A - Pass Details

Date: 25 May 2024
Orbit: 592 x 959 km, 66.7° (Epoch: 19 June)

Event Time Altitude Azimuth Distance (km) Brightness Sun altitude
Rises 09:53:46 0° 295° (WNW) 3,173 9.1 -8.5°
Reaches altitude 10° 09:56:32 10° 310° (NW) 2,317 8.6 -8.2°
Maximum altitude 10:00:46 23° 3° (N) 1,676 8.6 -7.9°
Drops below altitude 10° 10:05:19 10° 55° (NE) 2,514 10.1 -7.5°
Sets 10:08:28 0° 69° (ENE) 3,512 10.5 -7.2°
